Temperature
29 29 30 31 32 33 33 33 33 34 34 33 33 33 33 33 33 32 30 29 27 26 25 23 22 21 20 19 19 19 19 18 18 18 18 18 18 18 18 18 18 18 18 18
30 29 31 33 33 33 32 32 33 34 34 33 32 33 34 34 33 32 31 29 28 26 24 22 21 20 20 19 19 19 18 18 18 18 18 18 18 18 18 18 18 18 18 18
29 31 33 32 32 32 32 32 32 33 34 33 32 32 33 33 33 32 31 30 28 26 24 22 21 20 20 19 19 18 18 18 18 18 18 17 17 17 17 17 17 18 18 18
30 32 32 32 32 32 31 32 33 32 32 32 32 31 32 32 32 32 31 30 29 27 25 23 21 20 20 19 19 18 18 18 18 18 18 17 17 18 18 17 17 17 17 17
31 32 32 31 32 32 32 33 33 32 31 31 32 31 31 32 30 31 31 30 29 27 25 23 22 21 20 19 19 18 18 18 18 18 18 18 18 18 18 17 17 17 17 17
32 33 33 32 33 33 33 32 32 31 31 29 31 31 30 31 30 31 31 30 29 27 25 24 22 21 20 19 19 18 18 18 18 18 18 18 18 18 17 17 17 17 17 17
30 32 33 33 32 32 32 30 29 29 29 29 31 31 31 32 32 31 31 30 29 27 26 24 22 21 20 19 19 18 18 18 18 18 17 17 17 17 17 17 17 17 17 17
29 30 32 32 31 31 31 31 29 28 29 29 30 29 30 33 32 32 31 29 29 27 26 24 22 21 20 20 19 18 18 18 18 17 17 17 17 17 17 17 17 17 17 17
30 30 32 33 32 32 31 31 32 31 30 29 29 30 30 32 32 31 30 29 28 27 25 24 23 21 21 20 19 18 18 18 18 18 17 17 17 17 17 17 17 17 17 17
31 30 32 33 32 32 32 32 31 30 29 29 30 30 29 30 30 31 30 29 28 27 26 24 23 22 21 20 19 19 18 18 18 17 17 17 17 17 17 17 17 17 17 17
31 30 31 32 31 31 31 31 31 31 30 29 29 28 30 29 29 30 30 29 28 27 26 24 23 22 21 20 19 19 18 18 18 17 17 17 17 17 17 17 17 17 17 17
31 30 30 31 32 32 32 31 31 29 29 30 29 28 30 29 30 30 30 29 28 26 25 24 23 22 21 20 19 19 18 18 18 17 17 17 17 17 17 17 17 17 17 17
30 29 28 29 31 31 31 31 31 31 30 29 29 29 30 30 31 30 29 28 27 26 25 24 22 21 21 20 19 19 18 18 18 17 17 17 17 17 17 17 17 17 17 17
30 29 29 29 30 31 30 31 31 31 30 29 30 29 29 30 30 30 28 27 26 25 24 23 22 21 20 20 19 19 18 18 18 17 17 17 17 17 17 17 17 17 17 17
30 28 29 30 31 31 31 31 31 31 30 30 30 29 29 29 29 28 28 27 26 25 24 22 21 21 20 19 19 18 18 18 18 17 17 17 17 17 17 17 17 17 17 17
28 28 28 29 30 30 30 31 31 31 31 30 30 28 28 28 28 27 27 26 25 24 23 22 21 20 20 19 19 18 18 18 18 17 17 17 17 17 17 17 17 17 17 17
28 27 27 28 29 29 29 30 31 31 31 31 29 28 28 27 27 27 26 26 25 23 22 21 20 20 19 19 18 18 18 18 17 17 17 17 17 17 17 17 17 16 16 16
26 26 26 27 28 27 29 31 32 31 31 31 30 29 28 26 24 24 24 24 23 22 21 20 20 19 19 18 18 18 18 18 17 17 17 17 16 16 16 16 16 16 16 16
27 26 26 26 27 27 29 30 31 30 29 30 29 27 26 24 23 22 22 22 22 21 20 20 19 19 18 18 18 18 17 17 17 17 17 16 16 16 16 16 15 15 15 15
27 26 25 26 25 25 27 29 30 30 27 28 27 26 25 24 24 21 21 20 20 19 19 19 18 18 18 17 17 17 17 17 17 17 16 16 16 16 16 15 15 15 15 15
25 25 25 25 25 25 27 27 28 27 26 26 25 25 24 24 23 20 20 19 19 18 18 18 17 17 17 17 17 17 16 16 16 16 16 16 15 15 15 15 15 14 14 14
25 25 24 25 25 24 26 26 25 23 24 24 24 23 22 21 20 19 19 18 18 18 17 17 17 16 16 16 16 16 16 16 15 15 15 15 15 15 14 14 14 14 14 14
25 25 25 24 24 23 23 23 23 23 23 22 22 22 21 19 19 19 18 17 17 17 16 16 16 15 15 15 15 15 15 15 15 15 14 14 14 14 14 14 13 13 13 13
23 24 23 22 22 22 22 22 22 22 22 22 21 21 20 19 18 18 17 16 16 15 15 15 15 15 14 14 14 14 14 14 14 14 13 13 13 13 13 13 13 13 12 12
20 22 22 21 20 21 21 21 21 21 21 21 21 20 19 18 17 16 16 15 15 14 14 14 14 14 14 14 13 13 13 13 13 13 13 13 13 13 12 12 12 12 12 11
20 21 21 20 20 20 20 20 20 20 20 20 19 18 18 17 16 15 15 14 14 14 13 13 13 13 13 13 13 12 12 12 12 12 12 12 12 11 11 11 11 11 11 11
Wind_Speed
13 13 15 15 16 17 16 13 11 4 3 2 8 9 6 7 6 7 9 9 10 12 12 12 12 12 12 11 11 11 11 11 9 8 7 6 6 5 4 4 8 9 8 8
14 18 19 17 15 13 14 13 12 8 4 4 9 11 9 6 5 5 7 10 11 12 13 12 11 11 11 11 11 11 10 11 10 8 7 6 6 5 5 4 6 9 8 8
21 14 15 17 16 13 13 13 12 11 6 7 11 13 10 6 6 7 7 9 10 13 15 14 13 12 11 11 11 11 10 11 10 9 6 6 5 4 5 5 5 7 8 8
19 21 12 12 15 14 13 13 12 12 11 10 11 10 6 8 7 8 8 9 11 12 15 15 14 12 12 11 11 10 10 10 10 10 9 9 8 7 6 6 6 6 7 8
17 18 17 15 14 13 14 11 9 11 12 14 14 11 5 7 8 9 10 9 10 11 14 15 14 12 11 11 11 10 10 9 9 9 9 9 7 6 5 5 7 7 6 7
20 17 16 16 14 13 12 11 9 11 12 15 15 13 6 6 8 8 8 9 10 10 12 13 13 12 10 10 10 9 10 9 9 9 9 9 8 7 7 7 7 7 6 6
20 20 16 13 15 15 13 11 9 10 11 12 10 10 4 7 7 6 9 9 10 11 12 13 13 12 11 11 10 10 10 9 9 10 9 9 8 7 8 8 8 7 7 6
20 19 19 15 16 15 16 16 13 10 8 6 6 6 3 7 9 8 9 10 10 12 12 12 12 11 11 10 10 10 10 9 9 9 8 7 7 6 6 7 6 7 6 6
15 19 20 19 17 19 17 17 19 17 17 10 6 6 5 7 10 9 10 11 11 12 12 12 12 11 10 10 10 10 10 8 8 8 7 7 7 7 6 6 6 5 5 6
19 14 16 19 16 18 19 16 12 14 12 13 8 9 8 10 9 10 10 11 12 12 12 13 11 10 9 9 9 9 9 8 7 7 7 7 7 7 6 6 6 5 5 5
22 16 13 16 18 17 18 18 14 11 12 12 9 2 2 8 9 9 11 12 13 12 12 12 11 10 9 9 9 8 8 8 7 7 7 6 6 7 7 6 6 5 5 5
19 15 14 15 16 17 18 19 17 12 11 11 10 3 6 9 8 8 10 11 12 12 12 12 12 10 9 9 8 8 8 8 7 7 7 6 6 6 7 6 6 6 6 5
14 13 14 14 15 17 16 17 18 16 12 12 11 4 8 9 8 9 11 12 12 12 12 11 11 10 9 8 7 7 7 7 7 7 7 6 6 6 6 6 6 6 6 5
8 12 15 16 13 16 17 17 18 17 13 13 11 7 8 8 8 10 12 12 13 12 12 11 10 9 8 7 7 6 6 6 7 7 7 6 6 5 5 5 5 5 5 5
9 14 17 18 14 13 16 18 18 18 15 12 8 7 6 7 8 9 11 12 13 13 12 11 10 8 8 7 6 6 6 5 5 5 5 6 5 5 4 4 4 4 4 5
10 11 15 17 17 15 13 16 18 17 15 13 8 4 5 4 8 9 10 12 12 12 11 11 9 9 7 6 6 5 5 5 5 5 5 5 4 4 4 4 4 4 5 4
11 10 13 14 16 16 16 14 14 14 14 12 10 7 9 9 9 9 8 9 11 11 10 9 8 7 6 5 5 5 4 4 4 4 4 4 4 5 4 5 4 4 4 4
8 9 10 13 14 17 12 12 12 11 9 8 8 9 10 12 10 8 7 8 10 10 9 8 7 7 6 5 5 5 4 4 4 4 4 4 4 4 4 4 4 4 3 4
9 8 10 12 14 14 10 9 10 9 7 5 8 12 13 15 12 8 7 9 9 9 9 7 6 6 5 4 4 4 4 3 3 3 3 3 4 4 5 4 4 5 5 5
13 10 11 11 12 11 7 5 5 6 7 5 9 13 13 12 7 6 7 9 11 10 9 7 7 7 6 4 4 4 4 4 3 3 3 3 4 4 4 5 5 5 5 6
17 14 15 16 13 7 3 3 3 6 4 8 9 10 8 5 7 12 11 10 10 9 9 8 8 7 6 5 6 6 5 4 4 4 5 5 4 5 5 5 5 6 7 8
15 16 16 16 15 6 2 0 0 4 6 10 11 11 12 13 14 14 12 11 10 9 8 9 8 7 6 6 6 6 6 5 6 7 7 7 6 5 5 6 6 6 7 8
7 5 5 4 3 6 7 6 7 7 7 8 10 12 13 13 13 13 11 10 9 9 8 8 8 8 7 7 6 7 5 5 7 8 8 8 9 8 7 7 6 6 5 6
2 1 2 4 8 8 7 6 8 8 8 8 10 11 13 12 12 12 11 10 9 9 8 8 8 8 8 7 7 6 6 7 8 9 8 8 9 10 10 8 7 7 5 6
2 3 2 3 3 5 6 6 7 7 7 8 9 12 13 13 13 12 11 10 9 8 8 8 8 8 8 7 7 7 6 7 9 9 9 9 10 11 12 12 11 10 9 6
3 2 2 3 5 4 5 4 6 8 8 9 12 13 13 13 13 13 11 10 9 9 8 9 9 9 8 8 7 7 6 7 9 9 9 9 9 10 10 12 13 20 16 19
Wind_Direction
213 226 235 237 234 251 281 299 303 294 136 238 268 269 238 204 201 170 164 162 161 160 151 148 156 159 161 161 164 170 172 164 161 165 175 182 182 174 169 171 169 170 180 183
221 228 238 249 253 254 266 276 276 268 212 244 273 271 253 206 191 173 171 162 163 153 146 152 158 161 165 167 170 173 175 171 172 173 175 182 179 178 178 176 171 180 179 183
226 233 225 235 248 250 254 260 269 280 264 235 257 260 242 198 184 171 179 168 165 160 158 160 164 167 170 171 174 178 176 174 176 171 175 183 171 174 174 177 180 184 183 192
232 242 241 236 239 238 247 250 262 275 277 270 260 261 212 181 182 187 187 176 168 165 158 160 165 171 171 172 175 172 170 172 177 175 183 181 183 187 185 178 180 180 189 189
230 231 235 234 241 237 245 260 257 262 267 270 272 267 217 175 183 195 184 169 157 157 156 159 164 166 167 169 168 167 167 173 177 183 189 187 192 191 185 179 179 182 190 195
241 234 227 234 235 239 241 249 255 258 261 255 256 262 237 181 182 183 154 145 142 146 150 152 155 155 161 165 164 166 168 174 178 185 189 191 196 192 190 191 187 189 189 195
234 241 227 224 234 222 222 229 233 234 233 245 246 248 222 160 162 160 147 146 144 147 145 147 153 157 162 166 164 165 167 175 181 186 192 195 199 194 198 199 195 195 190 190
221 227 224 216 228 228 213 225 235 245 245 247 240 233 203 141 127 128 135 137 139 141 141 146 150 154 161 163 161 163 168 175 181 186 190 194 195 198 203 206 203 200 194 185
226 224 214 211 215 235 220 222 242 259 275 273 215 189 154 150 137 137 140 143 143 138 140 144 149 153 157 157 157 160 164 168 174 180 184 192 198 201 200 198 206 200 191 188
250 253 218 200 205 223 240 225 231 250 269 277 249 205 185 166 156 154 155 151 144 141 143 143 145 147 148 149 149 155 159 164 170 177 186 188 193 192 195 200 202 195 191 183
237 251 237 202 201 216 222 237 241 247 253 261 267 270 123 145 166 170 157 148 144 144 142 138 139 139 142 142 146 150 154 161 168 174 180 181 185 187 192 195 192 182 172 170
221 236 244 224 207 216 222 225 232 239 250 263 267 235 138 156 176 161 144 136 138 137 133 134 136 136 139 142 146 151 156 162 167 167 169 176 181 180 184 187 180 169 167 174
214 230 236 232 213 207 225 223 229 233 239 249 257 209 152 169 166 144 136 133 135 136 133 132 131 135 138 141 144 149 159 162 165 166 167 169 179 179 183 179 173 169 166 170
225 229 235 231 218 205 214 225 226 230 234 238 242 188 171 172 153 142 136 137 140 137 135 135 133 133 134 137 139 144 153 155 161 166 168 171 175 175 175 173 172 168 164 168
233 227 237 253 261 240 216 218 223 229 236 239 234 191 181 164 146 140 138 140 140 140 140 137 139 135 138 139 140 147 148 152 157 165 168 169 169 166 165 164 159 159 162 171
224 242 237 243 251 252 240 221 219 223 228 232 226 188 140 137 138 141 144 146 143 143 141 140 137 135 139 142 148 148 152 149 154 167 169 162 166 164 162 156 151 156 163 165
211 228 243 242 237 242 241 234 225 222 223 223 221 181 158 151 136 140 145 146 139 138 135 133 134 136 141 150 149 149 149 146 146 153 155 150 156 164 163 162 153 156 160 166
228 223 235 244 243 238 237 239 234 226 220 201 162 153 146 125 111 101 113 127 127 129 130 129 132 136 140 139 143 142 151 152 154 154 157 157 158 161 155 149 147 147 133 128
223 225 234 239 240 240 231 229 230 214 204 174 148 127 123 121 109 92 88 101 112 115 114 113 113 109 105 107 117 131 137 134 137 145 151 152 153 152 151 149 144 138 131 122
211 216 234 240 243 239 233 240 269 205 192 146 127 129 135 142 147 138 120 106 98 100 103 100 96 93 88 84 88 93 108 111 113 123 129 132 135 139 142 140 133 126 124 118
206 207 223 237 242 235 289 324 295 223 179 121 121 126 133 128 110 127 123 107 101 100 102 101 94 90 83 78 82 83 72 70 77 78 83 94 103 114 118 118 119 117 113 108
207 209 216 230 238 228 30 345 20 79 72 93 98 101 100 101 111 118 115 111 108 104 102 103 98 88 81 80 83 82 72 62 69 77 81 78 77 86 98 101 104 110 116 113
217 218 222 223 199 95 69 87 93 94 99 96 99 106 112 119 120 117 115 110 104 98 93 96 99 94 85 78 82 84 77 77 81 80 80 82 81 76 78 87 92 103 108 110
214 140 136 98 104 105 98 90 94 96 100 105 110 114 121 123 119 115 110 103 96 91 90 92 94 91 82 75 78 84 89 89 89 89 87 87 86 79 69 67 68 71 74 95
324 277 180 143 122 91 92 93 97 101 104 106 106 112 118 119 116 114 109 103 99 96 91 89 90 91 87 84 82 82 91 101 101 97 93 90 85 84 75 65 54 62 54 65
282 302 258 166 138 133 120 98 113 108 102 105 109 109 112 114 114 113 110 105 102 97 93 90 86 87 86 86 84 83 91 104 109 104 99 97 97 95 94 91 76 59 63 63
Height
1481 1483 1481 1474 1468 1467 1464 1464 1465 1457 1453 1462 1466 1464 1461 1462 1466 1470 1475 1480 1486 1490 1495 1498 1501 1504 1507 1509 1511 1514 1517 1520 1523 1526 1530 1533 1537 1540 1543 1546 1549 1552 1555 1558
1478 1479 1471 1465 1462 1463 1466 1469 1467 1459 1455 1462 1466 1464 1458 1459 1464 1469 1473 1478 1483 1489 1493 1497 1500 1503 1505 1507 1509 1512 1515 1518 1521 1525 1528 1532 1535 1539 1542 1545 1548 1551 1553 1556
1474 1465 1461 1464 1465 1468 1469 1470 1467 1464 1457 1458 1465 1467 1460 1458 1462 1467 1472 1476 1480 1486 1491 1495 1499 1502 1504 1505 1508 1510 1513 1516 1520 1524 1527 1531 1534 1537 1540 1543 1546 1548 1551 1554
1466 1460 1459 1462 1464 1466 1472 1463 1463 1465 1469 1470 1465 1478 1463 1458 1463 1466 1469 1473 1478 1483 1488 1493 1497 1500 1502 1504 1507 1509 1512 1515 1519 1522 1525 1528 1531 1534 1537 1541 1544 1546 1549 1552
1460 1457 1458 1463 1462 1461 1464 1458 1461 1465 1470 1473 1466 1472 1467 1458 1465 1465 1466 1470 1475 1481 1486 1491 1495 1498 1501 1504 1506 1509 1511 1514 1517 1520 1523 1526 1530 1533 1536 1539 1542 1544 1547 1550
1453 1449 1452 1455 1455 1457 1458 1461 1465 1467 1471 1485 1471 1473 1472 1460 1463 1462 1464 1469 1474 1480 1486 1490 1495 1498 1501 1503 1505 1508 1509 1512 1515 1518 1521 1524 1527 1530 1533 1536 1539 1542 1544 1547
1456 1450 1446 1450 1456 1456 1460 1472 1487 1490 1489 1483 1463 1468 1465 1453 1454 1457 1464 1469 1474 1479 1485 1490 1494 1497 1500 1502 1504 1506 1508 1510 1513 1515 1518 1521 1525 1528 1530 1533 1536 1539 1541 1544
1461 1460 1447 1447 1454 1456 1460 1467 1486 1492 1488 1480 1467 1472 1461 1448 1452 1457 1462 1468 1473 1479 1485 1490 1494 1497 1499 1502 1503 1505 1507 1509 1511 1513 1516 1519 1522 1525 1528 1531 1533 1536 1539 1541
1448 1451 1438 1441 1445 1450 1457 1462 1457 1466 1468 1476 1471 1464 1459 1451 1453 1458 1463 1468 1473 1479 1484 1489 1493 1496 1499 1501 1503 1504 1506 1508 1510 1512 1514 1517 1519 1522 1525 1528 1531 1533 1536 1539
1438 1445 1433 1435 1442 1445 1447 1450 1459 1468 1482 1485 1472 1468 1466 1459 1457 1458 1462 1467 1473 1478 1483 1488 1492 1496 1499 1501 1502 1504 1506 1507 1509 1511 1513 1515 1517 1519 1522 1525 1527 1530 1533 1536
1436 1445 1439 1434 1444 1448 1451 1453 1454 1458 1461 1477 1483 1476 1451 1455 1457 1458 1461 1466 1472 1478 1483 1488 1492 1495 1498 1501 1502 1504 1505 1507 1509 1510 1511 1513 1515 1517 1520 1522 1525 1528 1531 1533
1432 1439 1444 1436 1430 1435 1440 1447 1452 1468 1468 1463 1471 1473 1449 1453 1455 1457 1461 1466 1472 1478 1483 1488 1492 1495 1498 1501 1502 1504 1505 1507 1508 1509 1511 1512 1515 1517 1519 1521 1523 1526 1529 1531
1430 1439 1454 1451 1442 1437 1440 1440 1443 1447 1455 1463 1469 1470 1450 1452 1453 1457 1461 1467 1473 1478 1484 1488 1492 1495 1498 1500 1502 1504 1506 1507 1508 1509 1511 1512 1514 1516 1518 1520 1522 1525 1527 1529
1430 1437 1446 1452 1444 1436 1442 1440 1439 1445 1457 1460 1459 1461 1453 1453 1454 1458 1463 1468 1473 1479 1484 1488 1492 1495 1498 1500 1502 1504 1506 1507 1508 1509 1510 1512 1513 1515 1517 1519 1521 1523 1525 1527
1430 1439 1438 1434 1429 1428 1432 1436 1437 1442 1444 1452 1452 1453 1453 1453 1456 1460 1464 1469 1474 1479 1484 1488 1492 1495 1498 1500 1502 1503 1505 1506 1508 1509 1510 1511 1513 1514 1516 1518 1520 1522 1523 1525
1432 1438 1438 1439 1431 1429 1432 1431 1432 1436 1438 1443 1446 1452 1451 1454 1457 1462 1466 1470 1475 1479 1484 1488 1492 1495 1497 1499 1501 1503 1504 1506 1507 1508 1510 1511 1512 1513 1515 1516 1518 1520 1522 1524
1433 1441 1445 1444 1434 1434 1442 1431 1430 1432 1431 1437 1446 1449 1451 1454 1459 1464 1467 1470 1475 1479 1484 1487 1491 1494 1496 1498 1500 1502 1503 1505 1506 1507 1508 1510 1511 1512 1513 1515 1516 1518 1520 1522
1436 1441 1442 1444 1442 1455 1435 1420 1422 1427 1429 1431 1438 1443 1448 1456 1462 1466 1469 1472 1476 1480 1484 1487 1491 1493 1496 1498 1500 1501 1502 1504 1505 1506 1507 1508 1509 1510 1512 1513 1515 1516 1518 1520
1433 1440 1443 1444 1447 1444 1430 1423 1423 1429 1434 1433 1437 1445 1451 1458 1464 1470 1473 1475 1478 1482 1485 1488 1491 1493 1495 1497 1499 1500 1501 1503 1504 1505 1506 1507 1508 1509 1510 1511 1513 1515 1516 1518
1432 1436 1444 1445 1451 1453 1436 1425 1424 1428 1442 1438 1441 1447 1454 1459 1466 1474 1476 1478 1480 1483 1486 1488 1491 1493 1494 1496 1498 1499 1500 1502 1503 1504 1505 1506 1507 1508 1509 1510 1512 1514 1515 1517
1435 1439 1444 1445 1447 1443 1431 1429 1430 1445 1448 1441 1445 1449 1455 1460 1465 1472 1475 1479 1482 1485 1487 1489 1491 1493 1495 1496 1497 1498 1500 1501 1502 1503 1503 1504 1505 1506 1508 1509 1511 1513 1514 1516
1431 1436 1441 1441 1447 1451 1436 1435 1442 1447 1444 1445 1449 1453 1459 1464 1468 1472 1477 1481 1484 1486 1488 1490 1492 1493 1495 1496 1497 1498 1499 1500 1501 1502 1502 1504 1505 1506 1507 1509 1510 1512 1514 1515
1426 1429 1429 1435 1442 1442 1441 1444 1446 1447 1449 1452 1454 1456 1461 1466 1469 1474 1479 1483 1485 1487 1488 1490 1492 1494 1495 1496 1497 1497 1498 1500 1500 1501 1502 1503 1504 1506 1507 1509 1510 1512 1514 1515
1431 1430 1433 1438 1442 1443 1445 1447 1448 1451 1453 1455 1457 1460 1464 1468 1472 1476 1480 1483 1485 1488 1489 1491 1493 1494 1495 1497 1497 1498 1499 1500 1500 1501 1502 1504 1505 1506 1508 1509 1511 1512 1514 1516
1439 1435 1434 1441 1445 1446 1449 1450 1452 1454 1456 1457 1460 1462 1465 1470 1474 1477 1481 1484 1486 1489 1491 1493 1494 1495 1496 1497 1498 1498 1499 1500 1501 1502 1503 1505 1506 1507 1509 1510 1512 1514 1516 1517
1439 1439 1440 1443 1445 1447 1451 1454 1455 1456 1458 1460 1462 1465 1468 1472 1475 1479 1483 1485 1488 1491 1493 1494 1495 1496 1497 1498 1498 1499 1501 1502 1502 1503 1505 1506 1508 1509 1511 1512 1514 1517 1518 1519